Time,TemperatureF,DewpointF,PressureIn,WindDirection,WindDirectionDegrees,WindSpeedMPH,WindSpeedGustMPH,Humidity,HourlyPrecipIn,Conditions,Clouds,dailyrainin,SoftwareType,DateUTC
2013-08-16 01:11:00,72.0,39.0,29.69,West,281,6.0,10.0,30,0.00,,,0.00,,2013-08-16 07:11:00,
2013-08-16 01:21:00,73.0,39.0,29.68,NW,309,6.0,9.0,29,0.00,,,0.00,,2013-08-16 07:21:00,
2013-08-16 01:42:00,73.0,38.0,29.68,WNW,298,5.0,9.0,28,0.00,,,0.00,,2013-08-16 07:42:00,
2013-08-16 01:52:00,73.0,38.0,29.68,WNW,300,5.0,9.0,28,0.00,,,0.00,,2013-08-16 07:52:00,
2013-08-16 02:11:00,72.0,37.0,29.68,WNW,298,6.0,8.0,28,0.00,,,0.00,,2013-08-16 08:11:00,
2013-08-16 02:21:00,72.0,37.0,29.67,NW,315,6.0,9.0,28,0.00,,,0.00,,2013-08-16 08:21:00,
2013-08-16 02:41:00,73.0,36.0,29.67,NNW,330,5.0,9.0,26,0.00,,,0.00,,2013-08-16 08:41:00,
2013-08-16 02:52:00,73.0,36.0,29.67,NW,311,6.0,10.0,26,0.00,,,0.00,,2013-08-16 08:52:00,
2013-08-16 03:11:00,70.0,36.0,29.67,NW,312,3.0,4.0,29,0.00,,,0.00,,2013-08-16 09:11:00,
2013-08-16 03:21:00,68.0,39.0,29.67,WNW,300,2.0,4.0,34,0.00,,,0.00,,2013-08-16 09:21:00,
2013-08-16 03:42:00,66.0,36.0,29.67,WNW,292,4.0,7.0,33,0.00,,,0.00,,2013-08-16 09:42:00,
2013-08-16 03:53:00,68.0,35.0,29.67,NW,319,6.0,11.0,29,0.00,,,0.00,,2013-08-16 09:53:00,
2013-08-16 04:13:00,70.0,34.0,29.67,NW,304,10.0,13.0,27,0.00,,,0.00,,2013-08-16 10:13:00,
2013-08-16 04:23:00,70.0,34.0,29.67,WNW,297,7.0,11.0,27,0.00,,,0.00,,2013-08-16 10:23:00,
2013-08-16 04:42:00,69.0,35.0,29.67,WNW,286,5.0,10.0,29,0.00,,,0.00,,2013-08-16 10:42:00,
2013-08-16 04:52:00,68.0,33.0,29.67,WNW,301,6.0,8.0,27,0.00,,,0.00,,2013-08-16 10:52:00,
2013-08-16 05:12:00,68.0,34.0,29.67,West,279,4.0,10.0,28,0.00,,,0.00,,2013-08-16 11:12:00,
2013-08-16 05:21:00,67.0,35.0,29.66,WNW,284,6.0,10.0,30,0.00,,,0.00,,2013-08-16 11:21:00,
2013-08-16 05:42:00,68.0,33.0,29.66,WNW,288,7.0,11.0,27,0.00,,,0.00,,2013-08-16 11:42:00,
2013-08-16 05:52:00,66.0,35.0,29.67,NW,326,6.0,10.0,32,0.00,,,0.00,,2013-08-16 11:52:00,
2013-08-16 06:12:00,64.0,36.0,29.67,North,5,1.0,8.0,35,0.00,,,0.00,,2013-08-16 12:12:00,
2013-08-16 06:21:00,63.0,36.0,29.67,NW,313,2.0,5.0,37,0.00,,,0.00,,2013-08-16 12:21:00,
2013-08-16 06:41:00,61.0,36.0,29.67,WNW,286,3.0,5.0,40,0.00,,,0.00,,2013-08-16 12:41:00,
2013-08-16 06:52:00,60.0,37.0,29.67,West,281,2.0,5.0,42,0.00,,,0.00,,2013-08-16 12:52:00,
2013-08-16 07:11:00,59.0,37.0,29.67,WNW,282,1.0,5.0,44,0.00,,,0.00,,2013-08-16 13:11:00,
2013-08-16 07:21:00,61.0,37.0,29.67,NW,318,7.0,10.0,41,0.00,,,0.00,,2013-08-16 13:21:00,
2013-08-16 07:42:00,64.0,37.0,29.67,West,275,1.0,7.0,37,0.00,,,0.00,,2013-08-16 13:42:00,
2013-08-16 07:53:00,63.0,41.0,29.68,SW,221,2.0,5.0,44,0.00,,,0.00,,2013-08-16 13:53:00,
2013-08-16 08:11:00,62.0,39.0,29.68,SW,221,1.0,4.0,42,0.00,,,0.00,,2013-08-16 14:11:00,
2013-08-16 08:21:00,64.0,39.0,29.68,NW,313,1.0,5.0,39,0.00,,,0.00,,2013-08-16 14:21:00,
2013-08-16 08:41:00,66.0,43.0,29.68,WNW,302,4.0,7.0,43,0.00,,,0.00,,2013-08-16 14:41:00,
2013-08-16 08:52:00,67.0,41.0,29.68,WNW,302,3.0,5.0,38,0.00,,,0.00,,2013-08-16 14:52:00,
2013-08-16 09:12:00,69.0,41.0,29.68,WNW,302,2.0,4.0,36,0.00,,,0.00,,2013-08-16 15:12:00,
2013-08-16 09:22:00,70.0,43.0,29.68,WNW,302,0.0,3.0,37,0.00,,,0.00,,2013-08-16 15:22:00,
2013-08-16 09:43:00,72.0,42.0,29.68,WNW,302,0.0,1.0,34,0.00,,,0.00,,2013-08-16 15:43:00,
2013-08-16 09:56:00,73.0,42.0,29.67,WNW,302,0.0,3.0,33,0.00,,,0.00,,2013-08-16 15:56:00,
2013-08-16 10:13:00,74.0,41.0,29.67,NNE,33,3.0,5.0,30,0.00,,,0.00,,2013-08-16 16:13:00,
2013-08-16 10:23:00,73.0,43.0,29.67,NE,51,4.0,7.0,34,0.00,,,0.00,,2013-08-16 16:23:00,
2013-08-16 10:43:00,73.0,42.0,29.67,NE,51,3.0,5.0,33,0.00,,,0.00,,2013-08-16 16:43:00,
2013-08-16 10:57:00,74.0,41.0,29.67,NE,51,1.0,4.0,30,0.00,,,0.00,,2013-08-16 16:57:00,
2013-08-16 11:12:00,75.0,40.0,29.67,NE,51,2.0,3.0,28,0.00,,,0.00,,2013-08-16 17:12:00,
2013-08-16 11:28:00,76.0,40.0,29.67,NE,51,1.0,3.0,27,0.00,,,0.00,,2013-08-16 17:28:00,
2013-08-16 11:47:00,78.0,41.0,29.66,NE,51,1.0,3.0,27,0.00,,,0.00,,2013-08-16 17:47:00,
2013-08-16 12:00:00,79.0,41.0,29.66,NE,51,1.0,4.0,26,0.00,,,0.00,,2013-08-16 18:00:00,
2013-08-16 12:15:00,80.0,40.0,29.66,NE,51,2.0,4.0,24,0.00,,,0.00,,2013-08-16 18:15:00,
2013-08-16 12:27:00,81.0,40.0,29.65,NE,51,4.0,6.0,23,0.00,,,0.00,,2013-08-16 18:27:00,
2013-08-16 12:50:00,-999.0,-99.9,29.65,ENE,61,5.0,8.0,21,0.00,,,0.00,,2013-08-16 18:50:00,
2013-08-16 13:14:00,86.0,41.0,29.64,NE,34,6.0,11.0,21,0.00,,,0.00,,2013-08-16 19:14:00,
2013-08-16 13:25:00,87.0,38.0,29.63,NE,43,3.0,8.0,18,0.00,,,0.00,,2013-08-16 19:25:00,
2013-08-16 13:46:00,88.0,39.0,29.63,East,80,3.0,10.0,18,0.00,,,0.00,,2013-08-16 19:46:00,
2013-08-16 13:55:00,89.0,38.0,29.62,NE,56,3.0,10.0,17,0.00,,,0.00,,2013-08-16 19:55:00,
2013-08-16 14:11:00,91.0,39.0,29.61,NE,36,7.0,9.0,16,0.00,,,0.00,,2013-08-16 20:11:00,
2013-08-16 14:23:00,92.0,38.0,29.60,NE,55,8.0,13.0,15,0.00,,,0.00,,2013-08-16 20:23:00,
2013-08-16 14:44:00,93.0,37.0,29.59,East,86,8.0,17.0,14,0.00,,,0.00,,2013-08-16 20:44:00,
2013-08-16 14:52:00,94.0,34.0,29.59,East,81,7.0,16.0,12,0.00,,,0.00,,2013-08-16 20:52:00,
2013-08-16 15:11:00,94.0,31.0,29.59,ESE,103,4.0,9.0,11,0.00,,,0.00,,2013-08-16 21:11:00,
2013-08-16 15:25:00,93.0,33.0,29.59,East,92,9.0,14.0,12,0.00,,,0.00,,2013-08-16 21:25:00,
2013-08-16 15:40:00,-999.0,-99.9,29.58,East,100,7.0,13.0,-999,0.00,,,0.00,,2013-08-16 21:40:00,
2013-08-16 15:53:00,92.0,32.0,29.58,East,98,5.0,7.0,12,0.00,,,0.00,,2013-08-16 21:53:00,
2013-08-16 16:13:00,93.0,31.0,29.57,NE,54,5.0,7.0,11,0.00,,,0.00,,2013-08-16 22:13:00,
2013-08-16 16:24:00,94.0,31.0,29.58,SSE,148,5.0,11.0,11,0.00,,,0.00,,2013-08-16 22:24:00,
2013-08-16 16:43:00,93.0,28.0,29.57,East,92,0.0,9.0,10,0.00,,,0.00,,2013-08-16 22:43:00,
2013-08-16 16:52:00,93.0,28.0,29.57,ENE,76,4.0,8.0,10,0.00,,,0.00,,2013-08-16 22:52:00,
2013-08-16 17:12:00,93.0,33.0,29.57,East,79,1.0,3.0,12,0.00,,,0.00,,2013-08-16 23:12:00,
2013-08-16 17:23:00,91.0,31.0,29.57,SE,135,6.0,9.0,12,0.00,,,0.00,,2013-08-16 23:23:00,
2013-08-16 17:42:00,90.0,33.0,29.57,SE,131,6.0,11.0,13,0.00,,,0.00,,2013-08-16 23:42:00,
2013-08-16 17:52:00,89.0,32.0,29.57,SE,130,4.0,8.0,13,0.00,,,0.00,,2013-08-16 23:52:00,
2013-08-16 18:11:00,91.0,31.0,29.57,ESE,119,4.0,7.0,12,0.00,,,0.00,,2013-08-17 00:11:00,
2013-08-16 18:21:00,90.0,36.0,29.57,SE,130,1.0,5.0,15,0.00,,,0.00,,2013-08-17 00:21:00,
2013-08-16 18:41:00,91.0,33.0,29.57,SE,130,3.0,5.0,13,0.00,,,0.00,,2013-08-17 00:41:00,
2013-08-16 18:51:00,91.0,33.0,29.57,SE,130,3.0,5.0,13,0.00,,,0.00,,2013-08-17 00:51:00,
2013-08-16 19:01:00,91.0,33.0,29.57,SE,130,3.0,5.0,13,0.00,,,0.00,,2013-08-17 01:01:00,
2013-08-16 19:11:00,91.0,33.0,29.57,SE,130,3.0,5.0,13,0.00,,,0.00,,2013-08-17 01:11:00,
2013-08-16 21:11:00,79.0,32.0,29.57,NNW,329,7.0,14.0,18,0.00,,,0.00,,2013-08-17 03:11:00,
2013-08-16 21:21:00,79.0,30.0,29.57,NW,311,7.0,12.0,17,0.00,,,0.00,,2013-08-17 03:21:00,
2013-08-16 21:43:00,79.0,32.0,29.58,NW,311,7.0,11.0,18,0.00,,,0.00,,2013-08-17 03:43:00,
2013-08-16 21:53:00,78.0,28.0,29.58,NW,311,10.0,14.0,16,0.00,,,0.00,,2013-08-17 03:53:00,
2013-08-16 22:12:00,79.0,22.0,29.58,WSW,251,8.0,10.0,12,0.00,,,0.00,,2013-08-17 04:12:00,
2013-08-16 22:23:00,82.0,20.0,29.59,SW,232,9.0,15.0,10,0.00,,,0.00,,2013-08-17 04:23:00,
2013-08-16 22:44:00,83.0,18.0,29.59,SSW,213,10.0,12.0,9,0.00,,,0.00,,2013-08-17 04:44:00,
2013-08-16 23:12:00,82.0,18.0,29.58,West,269,6.0,13.0,9,0.00,,,0.00,,2013-08-17 05:12:00,